#timestamp,LO_Frequency,Hit,StdDev 
1501333215.8,286047000.7,N,0.4
1501333235.6,286047000.9,N,0.4
1501333255.4,286047000.2,N,0.4
1501333275.3,286047002.6,P,1.1
1501333295.1,286047002.3,N,1.0
1501333315.9,286047000.3,N,1.1
1501333335.7,286047000.9,N,1.0
1501333355.5,286047000.8,N,0.9
1501333375.4,286046999.9,N,1.0
1501333395.2,286047000.7,N,0.9
1501333415.1,286047001.2,N,0.8
1501333416.0,286047001.2,N,0.8
1501333435.8,286047000.8,N,0.8
1501333455.6,286047000.8,N,0.7
1501333475.5,286047000.8,N,0.7
1501333495.3,286046998.6,N,0.9
1501333515.2,286046999.3,N,1.0
1501333535.9,286046999.4,N,1.0
1501333555.7,286046999.4,N,1.0
1501333575.6,286046996.7,P,1.9
1501333595.4,286046999.2,N,1.6
1501333615.3,286046998.4,N,1.4
1501333635.1,286046996.9,N,1.4
1501333636.0,286046996.9,N,1.4
1501333655.8,286046996.5,N,1.4
1501333675.7,286046999.2,N,1.4
1501333695.5,286046999.0,N,1.4
1501333715.3,286046998.6,N,1.3
1501333735.2,286047001.2,N,1.5
1501333755.0,286047001.2,N,1.6
1501333755.9,286047001.2,N,1.7
1501333775.8,286047001.1,N,1.7
1501333795.6,286046998.1,N,1.7
1501333815.4,286046999.0,N,1.6
1501333835.3,286046999.0,N,1.6
1501333855.1,286046999.4,N,1.6
1501333875.9,286046996.5,N,1.6
1501333895.7,286046999.0,N,1.6
1501333915.5,286046999.0,N,1.5
1501333935.4,286046996.5,N,1.6
1501333955.2,286046996.6,N,1.6
1501333975.1,286046998.9,N,1.6
1501333976.0,286046998.9,N,1.5
1501333995.8,286046998.7,N,1.5
1501334015.6,286046998.8,N,1.5
1501334035.5,286046997.3,N,1.5
1501334055.3,286046999.6,N,1.5
1501334075.2,286046997.1,N,1.5
1501334095.9,286046997.6,N,1.4
1501334115.7,286046995.4,P,1.6
1501334135.6,286046999.1,N,1.6
1501334155.4,286046999.1,N,1.5
1501334175.3,286046997.9,N,1.4
1501334195.1,286046997.2,N,1.3
1501334196.0,286046997.2,N,1.2
1501334215.8,286046996.8,N,1.2
1501334235.7,286046996.5,N,1.2
1501334255.5,286046999.6,N,1.3
1501334275.4,286046997.7,N,1.2
1501334295.2,286046997.0,N,1.2
1501334315.0,286046998.0,N,1.1
1501334315.9,286046998.0,N,1.1
1501334335.8,286046995.6,P,1.1
1501334355.6,286046998.5,N,1.2
1501334375.5,286047001.1,N,2.0
1501334395.3,286047000.8,N,2.0
1501334415.1,286046998.7,N,1.9
1501334435.9,286046999.0,N,1.7
1501334455.7,286046998.5,N,1.6
1501334475.5,286046998.9,N,1.5
1501334495.4,286046996.6,N,1.6
1501334515.2,286046998.6,N,1.5
1501334535.1,286046998.7,N,1.4
1501334536.0,286046998.7,N,1.4
1501334555.8,286046999.0,N,1.3
1501334575.6,286046999.5,N,1.3
1501334595.5,286046999.3,N,1.3
1501334615.3,286046998.7,N,1.2
1501334635.2,286046998.8,N,1.2
1501334655.9,286046998.3,N,1.2
1501334675.7,286046999.0,N,1.2
1501334695.6,286046999.0,N,1.1
1501334715.4,286046998.9,N,1.1
1501334735.3,286046996.5,P,1.1
1501334755.1,286047001.0,N,1.8
1501334775.8,286047001.1,N,1.9
1501334795.7,286047001.1,N,1.8
1501334815.5,286046998.2,N,1.8
1501334835.4,286047000.7,N,1.7
1501334855.2,286047000.8,N,1.6
1501334875.0,286047001.0,N,1.6
1501334875.9,286047001.0,N,1.5
1501334895.8,286046998.5,N,1.5
1501334915.6,286046998.7,N,1.5
1501334935.5,286047000.7,N,1.5
1501334955.3,286047001.0,N,1.4
1501334975.1,286047000.7,N,1.4
1501334995.9,286047000.5,N,1.4
1501335015.7,286047002.7,N,1.5
1501335035.6,286047000.8,N,1.4
1501335055.4,286046998.2,N,1.5
1501335075.2,286047000.8,N,1.4
1501335095.1,286046998.4,N,1.4
1501335096.0,286046998.4,N,1.5
1501335115.8,286046998.7,N,1.4
1501335135.6,286047000.7,N,1.4
1501335155.5,286046999.2,N,1.4
1501335175.3,286046999.5,N,1.4
1501335195.2,286046999.2,N,1.4
1501335215.9,286046998.1,N,1.4
1501335235.7,286046998.9,N,1.4
1501335255.6,286046996.9,N,1.4
1501335275.4,286046996.6,N,1.5
1501335295.3,286046999.6,N,1.4
1501335315.1,286046996.5,N,1.5
1501335316.0,286046996.5,N,1.6
1501335335.8,286046996.9,N,1.6
1501335355.7,286046997.2,N,1.6
1501335375.5,286046997.8,N,1.6
1501335395.4,286046998.0,N,1.6
1501335415.2,286046998.0,N,1.6
1501335435.0,286046995.1,P,1.9
1501335435.9,286046995.1,N,1.8
1501335455.8,286046997.1,N,1.6
1501335475.6,286046996.9,N,1.4
1501335495.5,286046997.9,N,1.4
1501335515.3,286046995.3,P,0.8
1501335535.1,286047001.2,N,2.5
1501335555.9,286047000.6,N,2.5
1501335575.7,286047000.3,N,2.3
1501335595.6,286047002.7,N,2.6
1501335615.4,286047000.2,N,2.4
1501335635.2,286047000.1,N,2.2
1501335655.1,286047002.6,N,2.3
1501335656.0,286047002.6,N,2.3
1501335675.8,286046999.9,N,2.2
1501335695.6,286047002.6,N,2.2
1501335715.5,286047002.3,N,2.2
1501335735.3,286046999.7,N,2.1
1501335755.2,286047000.9,N,2.1
1501335775.0,286047000.2,N,2.0
1501335775.9,286047000.2,N,1.9
1501335795.7,286047000.1,N,1.9
1501335815.6,286047000.2,N,1.8
1501335835.4,286047002.7,N,1.9
1501335855.3,286047002.7,N,1.9
1501335875.1,286047002.4,N,1.9
1501335876.0,286047002.4,N,1.9
1501335895.8,286047004.3,N,1.9
1501335915.7,286047001.5,N,1.9
1501335935.5,286047002.0,N,1.9
1501335955.4,286047001.4,N,1.8
1501335975.2,286047004.2,N,1.9
1501335995.0,286047003.6,N,1.9
1501335995.9,286047003.6,N,1.9
1501336015.8,286047003.3,N,1.8
1501336035.6,286047002.9,N,1.4
1501336055.4,286047003.7,N,1.4
1501336075.3,286047004.2,N,1.4
1501336095.1,286047006.0,P,2.0
1501336115.9,286047002.5,N,1.8
1501336135.7,286047002.5,N,1.6
1501336155.5,286047002.7,N,1.5
1501336175.4,286047002.3,N,1.4
1501336195.2,286047002.4,N,1.3
1501336215.1,286047002.4,N,1.2
1501336216.0,286047002.4,N,1.1
1501336235.8,286046999.7,N,1.4
1501336255.6,286047002.4,N,1.4
1501336305.5,286047000.8,E,nan
1501336315.4,286046998.6,N,0.0
1501336335.3,286047000.5,P,1.0
1501336355.1,286047000.1,N,0.8
1501336375.9,286047000.4,N,0.8
1501336395.7,286047000.4,N,0.7
1501336415.5,286047000.5,N,0.7
1501336435.4,286047000.1,N,0.6
1501336455.2,286047002.7,P,1.3
1501336475.1,286047000.5,N,1.1
1501336476.0,286047000.5,N,1.0
1501336495.8,286047000.1,N,1.0
1501336515.6,286046998.6,N,1.2
1501336535.5,286046998.6,N,1.3
1501336555.3,286047000.8,N,1.2
1501336575.2,286046999.3,N,1.2
1501336595.9,286047001.0,N,1.2
1501336615.7,286047000.7,N,1.1
1501336635.6,286047000.8,N,1.1
1501336655.4,286046998.6,N,1.1
1501336675.2,286047001.2,N,1.1
1501336695.1,286047001.1,N,1.1
1501336696.0,286047001.1,N,1.1
1501336715.8,286046999.8,N,1.1
1501336735.7,286046999.9,N,1.0
1501336755.5,286047000.5,N,1.0
1501336775.3,286047000.1,N,1.0
1501336795.2,286046999.9,N,1.0
